Volver al catálogo

STARLINK-33881

ActivoComunicacionesVLEO
NORAD 63779·PAYLOAD·🇺🇸 United States

Lanzado May 2, 2025 desde Cape Canaveral Space Force Station

Loading…

Próximos Pases (próximas 24 horas)

TLE

ActualizadoSource: CelesTrak SupGP

Época: Sep 15, 2026, 03:19 UTC

1 63779C 25091E   26258.13868056 -.00031748  00000+0 -11498-2 0  2586
2 63779  43.0003  63.0164 0001477 264.5100  15.1853 15.27595835    15

Sigue STARLINK-33881 en tiempo real con AllMySat

Download on the App Store